Location: Rometta
(44.2000°N, 10.0500°E)
Time: 11:59:37
(UTC+00:00)

Cosmos 1818 - Pass Details

Date: 20 May 2021
Orbit: 771 x 802 km, 65.0° (Epoch: 15 June)

Event Time Altitude Azimuth Distance (km) Brightness Sun altitude
Rises 19:21:29 0° 328° (NNW) 3,320 8.3 -6.3°
Reaches altitude 10° 19:24:02 10° 335° (NNW) 2,387 7.2 -6.6°
Maximum altitude 19:29:19 46° 48° (NE) 1,074 4.2 -7.4°
Drops below altitude 10° 19:34:33 10° 121° (ESE) 2,368 5.4 -8.1°
Enters shadow 19:34:36 10° 122° (ESE) 2,388 5.4 -8.1°
